RYR395 LMML-LICC

Flight info

Callsign RYR395
Flight time N/A
Altitude 14000
Route GZO N982 NELDA
Aircraft B38M/M-SDE1FGHILORVWXY/HB1

Departure

Time N/A
Airport Malta International Airport (LMML)

Arrival

Time 2026-04-28 21:08
Airport Catania-Fontanarossa Airport (LICC)
Time Latitude Longitude Altitude Speed Heading
2026-04-28 21:06 37.46037 14.99082 1079 ft 211 kts 83°
2026-04-28 21:06 37.46187 15.00857 802 ft 190 kts 83°
2026-04-28 21:07 37.46322 15.02449 546 ft 167 kts 83°
2026-04-28 21:07 37.46441 15.03857 319 ft 152 kts 83°
2026-04-28 21:07 37.46554 15.05178 107 ft 146 kts 82°
2026-04-28 21:07 37.46653 15.06325 29 ft 95 kts 83°
2026-04-28 21:08 37.46701 15.06883 27 ft 37 kts 85°
2026-04-28 21:08 37.46724 15.07184 29 ft 31 kts 83°
2026-04-28 21:08 37.46752 15.07431 29 ft 25 kts 81°
2026-04-28 21:08 37.46790 15.07624 29 ft 18 kts 69°
2026-04-28 21:09 37.46843 15.07750 29 ft 14 kts 55°
2026-04-28 21:09 37.46912 15.07800 29 ft 10 kts 343°
2026-04-28 21:09 37.46934 15.07733 29 ft 9 kts 266°
2026-04-28 21:09 37.46926 15.07622 31 ft 15 kts 264°
2026-04-28 21:10 37.46912 15.07452 30 ft 21 kts 263°
2026-04-28 21:10 37.46894 15.07249 30 ft 21 kts 262°
2026-04-28 21:10 37.46881 15.07078 29 ft 18 kts 263°
2026-04-28 21:10 37.46868 15.06925 28 ft 16 kts 264°
2026-04-28 21:11 37.46856 15.06775 27 ft 15 kts 262°
2026-04-28 21:11 37.46845 15.06658 29 ft 11 kts 263°
2026-04-28 21:11 37.46840 15.06582 29 ft 4 kts 280°
2026-04-28 21:11 37.46856 15.06557 29 ft 4 kts 334°
2026-04-28 21:12 37.46902 15.06563 30 ft 8 kts 17°
2026-04-28 21:12 37.46928 15.06575 31 ft 1 kts 19°
2026-04-28 21:12 37.46930 15.06575 31 ft 0 kts 19°